Weather History for EBBL - November, 2013

Change the Weather History Date:

Wednesday, November 6, 2013

  Actual Average Record
Temperature  
Mean Temperature 50 °F -  
Max Temperature 57 °F 45 °F 59 °F (1996)
Min Temperature 44 °F 37 °F 33 °F (2012)
Degree Days  
Heating Degree Days 14    
Moisture  
Dew Point 49 °F    
Average Humidity 92    
Maximum Humidity 100    
Minimum Humidity 76    
Precipitation  
Precipitation 0.31 in - - ()
Sea Level Pressure  
Sea Level Pressure 29.57 in    
Wind  
Wind Speed 10 mph ()    
Max Wind Speed 21 mph    
Max Gust Speed 34 mph    
Visibility 5.0 miles    
Events Rain    
Averages and records for this station are not official NWS values.
T = Trace of Precipitation, MM = Missing Value Source: Averaged Metar Reports

Daily Weather History Graph

Daily Weather History Graph

Search for Another Location

Airport or City:

Trip Planner

Search our weather history database for the weather conditions in past years. The results will help you decide how hot, cold, wet, or windy it might be!

Date:

Astronomy

Nov. 06, 2013 Rise Set
Actual Time 7:39 AM CET 5:03 PM CET
Civil Twilight 7:04 AM CET 5:38 PM CET
Nautical Twilight 6:24 AM CET 6:18 PM CET
Astronomical Twilight 5:45 AM CET 6:56 PM CET
Moon 10:49 AM CET (11/6) 7:40 PM CET (11/6)
Length of Visible Light 10h 34m
Length of Day
9h 23m
Waxing Crescent, 11% of the Moon is Illuminated
Nov 6
Waxing Crescent
Nov 10
First Quarter
Nov 17
Full
Nov 25
Last Quarter
Dec 3
New

Hourly Weather History & Observations

Time (CET) Temp. Windchill Dew Point Humidity Pressure Visibility Wind Dir Wind Speed Gust Speed Precip Events Conditions
12:25 AM 46.4 °F 40.1 °F 42.8 °F 87% 29.42 in 6.2 mi WSW 15.0 mph - N/A   Scattered Clouds
12:55 AM 46.4 °F 40.7 °F 42.8 °F 87% 29.44 in 6.2 mi WSW 12.7 mph - N/A   Scattered Clouds
1:00 AM 46 °F - 43 °F 85% 29.46 in 9 mi WSW 13.4 mph - -   Partly Cloudy
1:25 AM 44.6 °F 39.2 °F 44.6 °F 100% 29.44 in 6.2 mi WSW 10.4 mph - N/A   Scattered Clouds
2:25 AM 44.6 °F 38.4 °F 44.6 °F 100% 29.47 in 6.2 mi WSW 12.7 mph - N/A   Scattered Clouds
2:55 AM 46.4 °F 41.1 °F 44.6 °F 93% 29.47 in 6.2 mi WSW 11.5 mph - N/A   Mostly Cloudy
3:25 AM 44.6 °F 38.8 °F 42.8 °F 93% 29.50 in 6.2 mi WSW 11.5 mph - N/A   Scattered Clouds
3:55 AM 44.6 °F 38.8 °F 42.8 °F 93% 29.47 in 6.2 mi WSW 11.5 mph - N/A   Partly Cloudy
4:25 AM 46.4 °F 41.5 °F 42.8 °F 87% 29.50 in 6.2 mi WSW 10.4 mph - N/A   Scattered Clouds
4:55 AM 46.4 °F 40.7 °F 42.8 °F 87% 29.53 in 6.2 mi WSW 12.7 mph - N/A   Mostly Cloudy
5:25 AM 46.4 °F 40.7 °F 42.8 °F 87% 29.53 in 6.2 mi WSW 12.7 mph - N/A   Mostly Cloudy
5:55 AM 46.4 °F 41.5 °F 42.8 °F 87% 29.53 in 6.2 mi WSW 10.4 mph - N/A   Mostly Cloudy
6:04 AM 46.4 °F 41.9 °F 42.8 °F 87% 29.53 in 6.2 mi WSW 9.2 mph - N/A   Mostly Cloudy
6:25 AM 46.4 °F 42.4 °F 42.8 °F 87% 29.53 in 6.2 mi SW 8.1 mph - N/A   Mostly Cloudy
6:55 AM 46.4 °F 41.9 °F 42.8 °F 87% 29.56 in 6.2 mi SW 9.2 mph - N/A Rain Light Rain
7:00 AM 46 °F - 43 °F 87% 29.58 in 9 mi SW 8.9 mph - - Rain Light Rain
7:25 AM 44.6 °F 41.4 °F 42.8 °F 93% 29.56 in 6.2 mi SW 5.8 mph - N/A   Mostly Cloudy
7:55 AM 46.4 °F 42.4 °F 42.8 °F 87% 29.56 in 6.2 mi SW 8.1 mph - N/A   Mostly Cloudy
8:25 AM 46.4 °F 41.5 °F 44.6 °F 93% 29.56 in 6.2 mi SW 10.4 mph - N/A   Mostly Cloudy
8:55 AM 48.2 °F - 44.6 °F 87% 29.59 in 6.2 mi SW 11.5 mph - N/A   Mostly Cloudy
9:25 AM 48.2 °F - 44.6 °F 87% 29.59 in 6.2 mi SW 11.5 mph - N/A   Mostly Cloudy
9:55 AM 50.0 °F - 44.6 °F 82% 29.59 in 6.2 mi WSW 12.7 mph - N/A   Mostly Cloudy
10:00 AM 49 °F - 45 °F 79% 29.60 in 9 mi WSW 11.2 mph - -   Partly Cloudy
10:25 AM 50.0 °F - 44.6 °F 82% 29.59 in 6.2 mi WSW 12.7 mph - N/A   Mostly Cloudy
10:55 AM 51.8 °F - 46.4 °F 82% 29.59 in 6.2 mi WSW 12.7 mph - N/A   Mostly Cloudy
11:25 AM 51.8 °F - 46.4 °F 82% 29.59 in 6.2 mi WSW 11.5 mph - N/A   Mostly Cloudy
11:38 AM 51.8 °F - 44.6 °F 76% 29.59 in 6.2 mi WSW 10.4 mph - N/A   Mostly Cloudy
11:55 AM 51.8 °F - 46.4 °F 82% 29.62 in 6.2 mi WSW 12.7 mph - N/A Rain Light Rain
12:25 PM 51.8 °F - 48.2 °F 88% 29.59 in 6.2 mi SW 12.7 mph - N/A Rain Light Rain
12:33 PM 51.8 °F - 48.2 °F 88% 29.59 in 6.2 mi SW 11.5 mph - N/A Rain Light Rain
12:55 PM 50.0 °F - 48.2 °F 94% 29.59 in 6.2 mi SW 12.7 mph - N/A Rain Light Rain
1:00 PM 51 °F - 48 °F 86% 29.61 in 6 mi SW 11.2 mph - - Rain Light Rain
1:13 PM 50.0 °F - 48.2 °F 94% 29.59 in 5.0 mi SW 10.4 mph - N/A Rain Light Rain
1:20 PM 51.8 °F - 50.0 °F 94% 29.59 in 4.3 mi SW 10.4 mph - N/A Rain Light Rain
1:25 PM 50.0 °F - 50.0 °F 100% 29.59 in 2.5 mi SW 11.5 mph - N/A Rain Light Rain
1:36 PM 50.0 °F - 50.0 °F 100% 29.59 in 2.5 mi SW 12.7 mph - N/A Rain Light Rain
1:55 PM 51.8 °F - 50.0 °F 94% 29.59 in 1.9 mi SW 10.4 mph - N/A Rain Light Rain
2:25 PM 51.8 °F - 50.0 °F 94% 29.59 in 1.9 mi SW 8.1 mph - N/A Rain Light Rain
2:55 PM 51.8 °F - 51.8 °F 100% 29.59 in 1.9 mi SW 5.8 mph - N/A Rain Light Rain
3:25 PM 51.8 °F - 51.8 °F 100% 29.59 in 1.6 mi SSW 3.5 mph - N/A   Drizzle
3:55 PM 51.8 °F - 51.8 °F 100% 29.59 in 1.9 mi SSW 5.8 mph - N/A   Drizzle
4:00 PM 51 °F - 51 °F 100% 29.61 in 2 mi SSW 4.5 mph - - Rain Drizzle
4:25 PM 51.8 °F - 51.8 °F 100% 29.59 in 2.2 mi Variable 3.5 mph - N/A   Drizzle
4:45 PM 51.8 °F - 51.8 °F 100% 29.59 in 1.2 mi SSW 4.6 mph - N/A Rain Rain
4:55 PM 51.8 °F - 51.8 °F 100% 29.59 in 1.1 mi SW 4.6 mph - N/A Rain Rain
5:25 PM 51.8 °F - 51.8 °F 100% 29.59 in 1.1 mi South 3.5 mph - N/A Rain Rain
5:39 PM 51.8 °F - 51.8 °F 100% 29.59 in 1.1 mi Variable 2.3 mph - N/A Rain Rain
5:55 PM 51.8 °F - 51.8 °F 100% 29.59 in 1.1 mi South 3.5 mph - N/A Rain Rain
6:03 PM 51.8 °F - 51.8 °F 100% 29.59 in 1.1 mi Variable 2.3 mph - N/A Rain Rain
6:25 PM 51.8 °F - 51.8 °F 100% 29.59 in 1.6 mi Variable 2.3 mph - N/A Rain Rain
6:55 PM 53.6 °F - 53.6 °F 100% 29.59 in 2.5 mi SW 8.1 mph - N/A   Light Drizzle
7:00 PM 54 °F - 53 °F 97% 29.61 in 2 mi SW 6.7 mph - - Rain Light Drizzle
7:14 PM 55.4 °F - 55.4 °F 100% 29.59 in 3.7 mi SW 11.5 mph - N/A   Mostly Cloudy
7:19 PM 55.4 °F - 55.4 °F 100% 29.59 in 6.2 mi SW 12.7 mph - N/A   Mostly Cloudy
7:25 PM 55.4 °F - 55.4 °F 100% 29.59 in 6.2 mi SW 15.0 mph - N/A   Mostly Cloudy
7:55 PM 57.2 °F - 55.4 °F 94% 29.59 in 6.2 mi SW 17.3 mph - N/A   Mostly Cloudy
8:25 PM 55.4 °F - 55.4 °F 100% 29.62 in 5.0 mi SW 16.1 mph - N/A   Light Drizzle
8:55 PM 55.4 °F - 53.6 °F 94% 29.62 in 6.2 mi SW 15.0 mph - N/A   Mostly Cloudy
9:13 PM 55.4 °F - 53.6 °F 94% 29.62 in 6.2 mi SW 17.3 mph - N/A   Mostly Cloudy
9:25 PM 55.4 °F - 53.6 °F 94% 29.62 in 6.2 mi SW 16.1 mph - N/A   Mostly Cloudy
9:55 PM 55.4 °F - 53.6 °F 94% 29.59 in 3.7 mi SW 16.1 mph - N/A   Mostly Cloudy
10:00 PM 55 °F - 54 °F 95% 29.62 in 4 mi SW 15.7 mph - - Rain Light Drizzle
10:25 PM 55.4 °F - 53.6 °F 94% 29.59 in 6.2 mi SW 16.1 mph - N/A   Mostly Cloudy
10:55 PM 57.2 °F - 51.8 °F 82% 29.59 in 6.2 mi WSW 20.7 mph 34.5 mph N/A   Mostly Cloudy
11:25 PM 57.2 °F - 51.8 °F 82% 29.59 in 6.2 mi SW 17.3 mph - N/A   Mostly Cloudy
11:53 PM 57.2 °F - 51.8 °F 82% 29.59 in 6.2 mi SW 20.7 mph - N/A   Mostly Cloudy
11:55 PM 57.2 °F - 51.8 °F 82% 29.59 in 6.2 mi SW 18.4 mph - N/A   Mostly Cloudy